Weather reports worldwide

Advertisment
Gottfrieding, Germany (10872): temperature & dewpoint: 05.12.2019 09:00:00 - 11.12.2019 09:00:00 (CET)Gottfrieding, Germany (10872): temperature 5cm & temperature -5cm: 05.12.2019 09:00:00 - 11.12.2019 09:00:00 (CET)Gottfrieding, Germany (10872): temperature -20cm & temperature -100cm: 05.12.2019 09:00:00 - 11.12.2019 09:00:00 (CET)Gottfrieding, Germany (10872): wind speed & gusts: 05.12.2019 09:00:00 - 11.12.2019 09:00:00 (CET)Gottfrieding, Germany (10872): wind direction: 05.12.2019 09:00:00 - 11.12.2019 09:00:00 (CET)Gottfrieding, Germany (10872): reduced air pressure: 05.12.2019 09:00:00 - 11.12.2019 09:00:00 (CET)Gottfrieding, Germany (10872): visibility: 05.12.2019 09:00:00 - 11.12.2019 09:00:00 (CET)Gottfrieding, Germany (10872): sunshine duration: 05.12.2019 09:00:00 - 11.12.2019 09:00:00 (CET)Gottfrieding, Germany (10872): precipitation: 05.12.2019 09:00:00 - 11.12.2019 09:00:00 (CET)
Date & Time tt [°C] td [°C] tt 5cm [°C] tt -5cm [°C] tt -20cm [°C] tt -100cm [°C] ff [km/h] ff [kn] fx [km/h] fx [kn] dd ppp [hPa] vv [km] sd [min] rr [mm]
11.12.2019 09:00:00 -4,1 -4,4 -4,2 0,1 3,2 6,9 13 7 15 8 NE 1020,4 2,6 33 0,0
11.12.2019 08:00:00 -4,5 -5,0 -6,5 0,2 3,3 6,9 9 5 12 6 ENE 1020,6 13 0 0,0
11.12.2019 07:00:00 -5,2 -6,0 -7,3 0,4 3,4 6,9 8 4 10 5 NE 1021,4 14 0 0,0
11.12.2019 06:00:00 -4,1 -4,6 -7,4 0,5 3,4 6,9 6 4 9 5 ENE 1021,6 10 0 0,0
11.12.2019 05:00:00 -3,6 -4,3 -6,8 0,7 3,5 6,9 5 3 9 5 E 1022,6 22 0 0,0
11.12.2019 04:00:00 -3,2 -3,4 -6,0 0,8 3,6 6,9 5 3 11 6 NE 1023,3 11 0 0,0
11.12.2019 03:00:00 -3,4 -3,8 -5,0 0,9 3,7 6,9 11 6 13 7 NE 1024,5 11 0 0,0
11.12.2019 02:00:00 -2,8 -3,1 -4,4 1,1 3,7 6,9 10 6 13 7 NE 1025,3 11 0 0,0
11.12.2019 01:00:00 -3,5 -4,0 -6,8 1,2 3,8 6,9 3 2 7 4 ESE 1026,2 11 0 0,0
11.12.2019 00:00:00 -3,2 -3,4 -6,1 1,3 3,9 6,9 3 1 4 2 S 1027,1 2,6 0 0,0
10.12.2019 23:00:00 -2,3 -2,4 -4,9 1,5 4,5 6,9 2 1 3 2 E 1027,3 7 0 0,0
10.12.2019 22:00:00 -2,1 -2,5 -4,5 1,6 4,6 6,9 4 2 5 3 SW 1027,6 13 0 0,0
10.12.2019 21:00:00 -1,1 -1,5 -3,3 1,8 4,7 6,9 3 1 7 4 W 1028,2 14 0 0,0
10.12.2019 20:00:00 -0,1 -1,0 -2,8 2,0 4,8 6,9 6 3 7 4 SSW 1028,2 17 0 0,0
10.12.2019 19:00:00 0,8 -0,3 -2,1 2,1 4,8 6,9 3 1 10 5 W 1028,5 23 0 0,0
10.12.2019 18:00:00 1,7 -0,5 -1,9 2,7 4,8 6,9 6 3 9 5 S 1028,4 28 0 0,0
10.12.2019 17:00:00 3,1 0,3 1,7 3,3 4,8 6,9 6 4 17 9 WSW 1028,4 29 0 0,0
10.12.2019 16:00:00 3,4 0,5 2,7 3,6 4,8 6,9 12 6 23 12 WSW 1028,6 27 0 0,0
10.12.2019 15:00:00 3,7 0,6 3,3 3,9 4,8 6,9 15 8 23 13 WSW 1028,6 26 0 0,0
10.12.2019 14:00:00 3,7 0,7 3,6 3,9 4,7 6,9 19 10 24 13 WSW 1028,6 30 0 0,0
10.12.2019 13:00:00 3,5 0,6 3,6 3,7 4,7 6,9 18 10 27 14 WSW 1028,4 32 0 0,0
10.12.2019 12:00:00 3,3 0,4 3,2 3,4 4,7 6,9 16 9 31 17 W 1028,3 31 0 0,0
10.12.2019 11:00:00 3,2 1,0 3,2 3,0 4,7 6,9 16 9 26 14 W 1028,2 33 0 0,0
10.12.2019 10:00:00 2,6 0,4 2,3 2,6 4,8 6,9 20 11 27 15 W 1027,6 33 0 0,0
10.12.2019 09:00:00 2,4 -0,2 1,7 2,0 4,9 6,9 20 11 29 16 W 1026,6 39 16 0,0
10.12.2019 08:00:00 1,3 -0,2 -0,6 2,5 5,0 6,9 13 7 22 12 W 1025,4 36 0 0,0
10.12.2019 07:00:00 2,8 0,0 2,0 3,1 5,0 6,9 17 9 30 16 NW 1023,8 43 0 0,0
10.12.2019 06:00:00 3,4 1,4 2,2 3,5 5,1 6,9 17 9 31 17 WNW 1022,1 50 0 0,0
10.12.2019 05:00:00 3,8 1,6 2,8 3,7 5,1 6,9 15 8 36 19 NW 1020,5 50 0 0,0
10.12.2019 04:00:00 4,7 2,4 3,7 4,0 4,5 6,9 25 13 36 19 NW 1018,8 54 0 0,4
10.12.2019 03:00:00 4,9 3,1 3,6 4,0 4,5 6,9 17 9 33 18 W 1017,3 42 0 0,3
10.12.2019 02:00:00 5,2 3,1 4,1 4,0 4,5 6,9 18 10 28 15 W 1016,0 16 0 0,7
10.12.2019 01:00:00 5,1 3,6 4,1 4,0 4,5 6,9 16 9 30 16 W 1014,7 9 0 0,1
10.12.2019 00:00:00 4,8 3,8 3,9 3,9 4,5 6,9 14 8 20 11 W 1013,5 45 0 0,1
09.12.2019 23:00:00 5,0 3,5 4,1 3,7 4,6 6,9 18 10 31 17 W 1012,0 16 0 0,0
09.12.2019 22:00:00 4,9 2,6 3,9 3,4 4,6 6,9 17 9 23 12 W 1011,0 55 0 0,0
09.12.2019 21:00:00 4,0 1,9 2,0 3,1 4,7 6,9 5 3 10 5 W 1010,1 62 0 0,0
09.12.2019 20:00:00 3,7 1,4 -0,2 3,1 4,8 6,9 10 5 21 11 W 1008,9 63 0 0,0
09.12.2019 19:00:00 4,7 2,0 1,7 3,9 4,8 6,9 11 6 32 17 WSW 1007,9 75 0 0,0
09.12.2019 18:00:00 7,5 2,1 5,2 4,0 4,8 6,9 26 14 40 21 WSW 1006,8 75 0 0,0
09.12.2019 17:00:00 4,1 1,1 1,6 4,5 4,8 6,9 5 3 11 6 W 1006,6 65 0 0,0
09.12.2019 16:00:00 8,3 1,8 4,9 5,7 4,7 6,9 9 5 22 12 SW 1005,5 57 0 0,0
09.12.2019 15:00:00 9,1 2,0 7,8 6,1 4,6 6,9 18 10 34 18 WSW 1005,4 61 29 0,0
09.12.2019 14:00:00 9,2 2,5 8,4 5,9 4,5 6,9 20 11 40 21 WSW 1005,5 61 11 0,0
09.12.2019 13:00:00 8,8 2,8 8,3 5,5 4,4 6,9 14 8 25 13 SW 1005,8 65 0 0,0
09.12.2019 12:00:00 8,5 2,1 7,6 5,0 4,4 6,9 17 9 27 15 SW 1006,4 65 0 0,0
09.12.2019 11:00:00 8,0 2,2 6,9 4,5 4,4 6,9 16 9 26 14 WSW 1006,7 75 0 0,0
09.12.2019 10:00:00 7,4 2,2 6,0 3,9 4,4 6,9 14 8 21 11 SW 1007,2 51 0 0,0
09.12.2019 09:00:00 6,7 2,3 4,7 3,6 4,4 6,9 10 6 23 12 SW 1007,6 55 0 0,0
09.12.2019 08:00:00 6,3 3,2 4,7 3,4 4,4 6,9 9 5 16 8 SW 1007,4 60 0 0,0
09.12.2019 07:00:00 5,7 2,8 2,5 3,7 4,4 6,9 8 4 15 8 SSW 1007,5 66 0 0,0
09.12.2019 06:00:00 6,3 2,8 4,4 4,1 4,4 6,9 12 6 18 10 SW 1007,3 61 0 0,0
09.12.2019 05:00:00 6,7 3,0 4,9 4,5 4,4 6,9 14 8 29 15 WSW 1007,4 67 0 0,0
09.12.2019 04:00:00 7,3 3,5 6,1 4,7 4,4 6,9 24 13 33 18 W 1007,7 66 0 0,0
09.12.2019 03:00:00 7,5 5,0 6,5 4,5 4,3 6,9 24 13 47 26 WNW 1007,8 72 0 0,2
09.12.2019 02:00:00 6,6 4,6 4,4 4,1 4,3 6,9 7 4 21 12 W 1006,7 56 0 0,0
09.12.2019 01:00:00 4,6 4,1 3,9 4,0 4,3 6,9 5 3 9 5 ENE 1006,8 29 0 0,2
09.12.2019 00:00:00 4,4 3,8 3,8 4,0 4,4 6,9 5 3 6 4 ENE 1007,2 22 0 0,4
08.12.2019 23:00:00 4,8 3,0 3,8 3,9 4,4 6,9 5 3 11 6 ENE 1007,6 44 0 0,1
08.12.2019 22:00:00 4,6 2,8 3,8 3,9 4,4 6,9 6 3 9 5 NE 1007,7 45 0 0,0
08.12.2019 21:00:00 5,0 2,7 4,2 3,8 4,4 6,9 5 3 11 6 NE 1008,7 51 0 0,0
08.12.2019 20:00:00 4,7 2,4 3,4 3,6 4,5 6,9 3 2 11 6 W 1009,1 61 0 0,0
08.12.2019 19:00:00 6,2 2,1 2,9 4,1 4,5 6,9 8 5 13 7 S 1009,5 70 0 0,0
08.12.2019 18:00:00 7,1 3,2 4,3 4,6 4,4 6,9 12 7 18 10 S 1009,5 69 0 0,0
08.12.2019 17:00:00 8,2 3,3 5,3 5,2 4,3 6,9 11 6 21 11 S 1010,1 75 0 0,0
08.12.2019 16:00:00 9,7 3,7 7,4 6,1 4,2 6,9 17 9 26 14 WSW 1010,4 75 25 0,0
08.12.2019 15:00:00 10,0 4,2 8,7 6,6 4,0 6,9 13 7 27 15 SW 1010,9 75 37 0,0
08.12.2019 14:00:00 9,7 3,8 9,0 6,6 3,8 6,9 23 12 32 18 WSW 1011,9 75 54 0,0
08.12.2019 13:00:00 9,3 4,2 9,6 6,3 3,6 6,9 19 11 35 19 WSW 1013,3 75 60 0,0
08.12.2019 12:00:00 8,6 4,0 9,1 5,6 3,5 6,9 9 5 16 8 W 1014,3 73 60 0,0
08.12.2019 11:00:00 7,1 3,1 5,7 4,0 4,1 6,9 0 0 5 3 N 1015,5 68 60 0,0
08.12.2019 10:00:00 4,4 2,5 3,7 2,4 4,1 6,9 3 2 6 4 NW 1016,5 53 60 0,0
08.12.2019 09:00:00 1,7 0,6 0,1 1,5 4,2 6,9 5 3 6 3 WNW 1017,4 36 34 0,0
08.12.2019 08:00:00 2,6 1,8 -1,2 1,9 4,2 6,9 5 3 9 5 W 1017,0 58 0 0,0
08.12.2019 07:00:00 2,9 2,5 -0,6 2,6 4,2 6,9 0 0 7 4 N 1017,2 23 0 0,0
08.12.2019 06:00:00 2,6 2,2 1,5 2,7 4,2 7,0 6 3 11 6 WNW 1017,6 18 0 0,0
08.12.2019 05:00:00 3,9 3,2 2,5 3,0 4,2 7,0 0 0 5 3 N 1018,3 30 0 0,0
08.12.2019 04:00:00 3,9 3,2 2,7 3,0 4,2 7,0 3 1 8 5 N 1018,8 29 0 0,0
08.12.2019 03:00:00 4,3 3,4 2,9 3,0 4,2 7,0 4 2 8 5 SW 1019,6 35 0 0,0
08.12.2019 02:00:00 4,2 3,3 3,0 3,0 4,2 7,0 8 4 13 7 W 1019,8 40 0 0,0
08.12.2019 01:00:00 4,0 3,2 2,9 2,9 4,2 7,0 8 4 11 6 WSW 1020,2 32 0 0,0
08.12.2019 00:00:00 2,8 2,2 1,8 2,8 4,2 7,0 4 2 7 4 WNW 1021,1 21 0 0,0
07.12.2019 23:00:00 4,5 3,3 3,5 3,2 4,2 7,0 8 5 11 6 WSW 1020,8 41 0 0,0
07.12.2019 22:00:00 4,9 4,0 3,7 3,4 4,2 7,0 8 5 12 6 W 1020,5 36 0 0,0
07.12.2019 21:00:00 5,0 4,1 3,8 3,4 4,2 7,0 10 6 14 8 W 1020,5 57 0 0,0
07.12.2019 20:00:00 5,2 3,7 1,5 3,6 4,2 7,0 10 5 20 11 WSW 1020,3 60 0 0,0
07.12.2019 19:00:00 7,0 4,6 5,3 4,0 4,1 7,0 17 9 24 13 WSW 1019,5 69 0 0,1
07.12.2019 18:00:00 6,8 4,3 4,6 4,2 4,0 7,1 8 5 18 10 WSW 1019,1 44 0 0,0
07.12.2019 17:00:00 7,1 4,3 5,7 4,3 3,8 7,1 11 6 16 9 WSW 1018,6 75 0 0,0
07.12.2019 16:00:00 7,9 4,9 5,6 4,8 3,7 7,1 10 5 19 10 WSW 1017,8 60 0 0,0
07.12.2019 15:00:00 8,0 5,6 7,0 4,9 3,5 7,1 12 7 28 15 WSW 1017,5 67 0 0,0
07.12.2019 14:00:00 8,0 5,5 7,6 4,8 3,3 7,1 17 9 22 12 WSW 1017,3 68 0 0,0
07.12.2019 13:00:00 8,0 5,1 7,3 4,3 3,1 7,1 16 9 36 19 W 1017,3 57 0 0,1
07.12.2019 12:00:00 8,3 5,0 7,6 3,8 3,0 7,1 19 10 29 16 W 1016,8 68 6 0,0
07.12.2019 11:00:00 7,9 4,3 7,6 2,1 3,0 7,1 20 11 31 17 W 1016,9 71 8 0,0
07.12.2019 10:00:00 5,7 3,2 3,9 0,9 3,0 7,1 14 8 22 12 W 1016,9 48 8 0,0
07.12.2019 09:00:00 3,7 2,5 1,6 0,9 3,0 7,1 11 6 18 10 WSW 1016,9 40 0 0,0
07.12.2019 08:00:00 0,3 0,1 -0,1 0,8 3,0 7,1 5 3 6 3 NW 1017,1 7 0 0,0
07.12.2019 07:00:00 0,2 0,1 -0,3 0,8 3,0 7,1 3 2 8 4 NE 1016,6 5 0 0,0
07.12.2019 06:00:00 0,3 0,1 -0,1 0,8 3,0 7,2 4 2 5 3 NE 1016,2 9 0 0,0
07.12.2019 05:00:00 -0,2 -0,5 -0,4 0,8 3,0 7,2 0 0 6 3 N 1015,9 9 0 0,0
07.12.2019 04:00:00 -0,8 -1,2 -0,6 0,8 3,0 7,2 2 1 6 4 NNE 1016,1 10 0 0,6
07.12.2019 03:00:00 -1,2 -1,6 -0,6 0,7 3,0 7,2 5 3 11 6 ENE 1016,7 6 0 1,1
07.12.2019 02:00:00 -1,9 -2,3 -0,8 0,7 3,0 7,2 9 5 11 6 ENE 1017,6 7 0 0,1
07.12.2019 01:00:00 -2,5 -2,7 -2,8 0,7 3,0 7,2 9 5 11 6 NE 1018,1 4,5 0 0,0
07.12.2019 00:00:00 -2,5 -2,8 -2,7 0,8 3,0 7,2 8 4 13 7 E 1018,6 6 0 0,0
06.12.2019 23:00:00 -2,3 -2,5 -2,1 0,8 3,0 7,2 6 3 10 6 E 1018,8 3,9 0 0,0
06.12.2019 22:00:00 -2,2 -2,4 -2,0 0,8 3,0 7,2 6 3 10 6 ESE 1019,3 3,8 0 0,0
06.12.2019 21:00:00 -1,9 -2,1 -1,8 0,8 2,9 7,2 5 3 11 6 ESE 1019,4 4,9 0 0,0
06.12.2019 20:00:00 -1,9 -2,1 -1,8 0,7 2,9 7,3 6 3 13 7 ESE 1019,8 4,9 0 0,0
06.12.2019 19:00:00 -1,9 -2,1 -1,6 0,7 2,9 7,3 8 5 13 7 SE 1020,0 4,9 0 0,0
06.12.2019 18:00:00 -1,7 -2,0 -1,5 0,7 2,9 7,3 8 4 13 7 E 1020,2 4,2 0 0,0
06.12.2019 17:00:00 -1,4 -2,0 -1,3 0,6 2,9 7,3 8 5 13 7 ESE 1020,4 6 0 0,0
06.12.2019 16:00:00 -1,1 -2,2 -1,0 0,6 2,9 7,3 8 4 11 6 SE 1020,7 11 0 0,0
06.12.2019 15:00:00 -0,8 -2,1 -0,6 0,5 2,9 7,3 4 2 8 5 E 1021,1 14 0 0,0
06.12.2019 14:00:00 -0,9 -2,2 -0,3 0,5 2,9 7,3 5 3 12 7 ESE 1021,8 13 0 0,0
06.12.2019 13:00:00 -1,2 -2,5 -0,3 0,5 2,9 7,3 8 5 13 7 SE 1022,5 13 0 0,0
06.12.2019 12:00:00 -1,4 -2,3 -0,7 0,5 2,9 7,3 8 4 14 8 SE 1023,2 9 0 0,0
06.12.2019 11:00:00 -1,9 -2,8 -1,0 0,5 2,9 7,3 7 4 11 6 SE 1024,3 9 0 0,0
06.12.2019 10:00:00 -2,2 -3,1 -1,5 0,4 2,9 7,4 6 3 11 6 S 1024,4 12 0 0,0
06.12.2019 09:00:00 -2,6 -3,6 -2,3 0,4 2,9 7,4 5 3 12 6 SSW 1024,7 12 0 0,0
06.12.2019 08:00:00 -2,5 -3,4 -2,4 0,4 2,9 7,4 6 3 11 6 SSE 1024,3 11 0 0,0
06.12.2019 07:00:00 -2,1 -2,7 -2,0 0,5 2,9 7,4 7 4 10 5 SSE 1024,3 7 0 0,0
06.12.2019 06:00:00 -1,9 -2,5 -1,9 0,5 2,9 7,4 6 3 11 6 WSW 1024,5 7 0 0,0
06.12.2019 05:00:00 -1,8 -2,3 -1,8 0,5 2,9 7,4 8 5 13 7 SW 1024,4 5 0 0,0
06.12.2019 04:00:00 -1,5 -2,0 -1,6 0,4 2,9 7,4 3 2 9 5 SSW 1024,4 4,7 0 0,0
06.12.2019 03:00:00 -1,7 -1,9 -1,6 0,4 2,9 7,4 4 2 9 5 SSW 1024,4 2,9 0 0,0
06.12.2019 02:00:00 -1,8 -2,0 -1,7 0,4 2,9 7,4 2 1 7 4 SE 1024,9 2,2 0 0,0
06.12.2019 01:00:00 -1,9 -2,3 -1,7 0,4 2,9 7,4 4 2 11 6 ESE 1025,2 3,0 0 0,0
06.12.2019 00:00:00 -1,9 -2,3 -1,7 0,4 2,9 7,5 7 4 11 6 SSE 1025,3 3,9 0 0,0
05.12.2019 23:00:00 -1,9 -2,4 -1,9 0,4 2,9 7,5 3 2 10 5 SSW 1025,6 4,4 0 0,0
05.12.2019 22:00:00 -1,9 -2,4 -1,8 0,3 2,9 7,5 2 1 8 5 SSW 1026,0 3,0 0 0,0
05.12.2019 21:00:00 -1,8 -2,3 -1,9 0,3 2,9 7,5 3 1 11 6 S 1026,2 4,9 0 0,0
05.12.2019 20:00:00 -1,7 -2,2 -1,7 0,2 2,9 7,5 3 2 10 6 SE 1026,1 4,0 0 0,0
05.12.2019 19:00:00 -1,6 -2,2 -1,6 0,2 2,9 7,5 7 4 10 6 SE 1025,8 4,5 0 0,0
05.12.2019 18:00:00 -1,4 -2,4 -1,4 0,1 2,9 7,5 5 3 8 4 ESE 1025,7 6 0 0,0
05.12.2019 17:00:00 -1,3 -2,4 -1,4 0,1 2,9 7,5 2 1 10 5 W 1025,7 7 0 0,0
05.12.2019 16:00:00 -1,0 -2,0 -1,1 0,1 2,9 7,5 4 2 10 6 S 1025,3 6 0 0,0
05.12.2019 15:00:00 -0,9 -2,0 -0,9 0,0 2,9 7,5 4 2 9 5 ESE 1024,9 6 0 0,0
05.12.2019 14:00:00 -1,0 -2,0 -1,0 0,0 2,9 7,6 4 2 15 8 NNW 1025,4 6 0 0,0
05.12.2019 13:00:00 -1,4 -2,2 -1,0 0,0 2,9 7,6 5 3 10 5 ESE 1025,5 4,8 0 0,0
05.12.2019 12:00:00 -1,6 -2,5 -1,1 -0,1 3,0 7,6 4 2 12 7 SE 1026,0 4,8 0 0,0
05.12.2019 11:00:00 -1,6 -2,3 -1,0 -0,1 3,0 7,6 7 4 13 7 SSE 1026,3 6 0 0,0
05.12.2019 10:00:00 -1,8 -2,5 -1,4 -0,2 3,0 7,6 9 5 12 7 SE 1026,0 5 0 0,0
05.12.2019 09:00:00 -1,9 -2,7 -1,8 -0,3 3,1 7,6 8 4 12 7 SE 1025,7 6 0 0,0

tt = temperature
td = dewpoint
tt 5cm = temperature 5cm
tt -5cm = temperature -5cm
tt -20cm = temperature -20cm
tt -100cm = temperature -100cm
ff = wind speed
fx = gusts
dd = wind direction
ppp = reduced air pressure
vv = visibility
sd = sunshine duration
rr = precipitation

Next stations